Hebbronville, TX

7:52 AM CST on December 11, 2017 (GMT -0600)
Hogg County

Weather History for KHBV - September, 2013

Change the Weather History Date:

Wednesday, September 25, 2013

  Actual Average (KALI) Record (KALI)
Temperature  
Mean Temperature 82 °F -  
Max Temperature 93 °F 88 °F 104 °F (2005)
Min Temperature 70 °F 66 °F 60 °F (2000)
Cooling Degree Days 16    
Growing Degree Days 32 (Base 50)    
Moisture  
Dew Point 59 °F    
Average Humidity 51    
Maximum Humidity 81    
Minimum Humidity 18    
Precipitation  
Precipitation 0.00 in - - ()
Sea Level Pressure  
Sea Level Pressure 29.86 in    
Wind  
Wind Speed 6 mph (SSE)    
Max Wind Speed 10 mph    
Max Gust Speed 17 mph    
Visibility 10 miles    
Events      
Averages and records for this station are not official NWS values.
T = Trace of Precipitation, MM = Missing Value Source: NWS Daily Summary

Daily Weather History Graph

Daily Weather History Graph

Search for Another Location

Airport or City:

Trip Planner

Search our weather history database for the weather conditions in past years. The results will help you decide how hot, cold, wet, or windy it might be!

Date:

Astronomy

Sep. 25, 2013 Rise Set
Actual Time 7:24 AM CDT 7:27 PM CDT
Civil Twilight 7:01 AM CDT 7:50 PM CDT
Nautical Twilight 6:34 AM CDT 8:17 PM CDT
Astronomical Twilight 6:07 AM CDT 8:45 PM CDT
Moon No Moon Rise 1:04 PM CDT (9/25)
Length of Visible Light 12h 49m
Length of Day
12h 02m
Waning Gibbous, 64% of the Moon is Illuminated
Sep 25
Waning Gibbous
Sep 26
Last Quarter
Oct 4
New
Oct 11
First Quarter
Oct 18
Full

Hourly Weather History & Observations

Time (CDT) Temp. Heat Index Dew Point Humidity Pressure Visibility Wind Dir Wind Speed Gust Speed Precip Events Conditions
12:15 AM 73.9 °F - 61.5 °F 65% 29.89 in 10.0 mi SSW 4.6 mph - N/A   Clear
12:35 AM 73.4 °F - 61.5 °F 66% 29.89 in 10.0 mi South 5.8 mph - N/A   Clear
12:55 AM 72.9 °F - 61.9 °F 68% 29.89 in 10.0 mi South 5.8 mph - N/A   Clear
1:15 AM 73.2 °F - 61.3 °F 66% 29.90 in 10.0 mi SSE 5.8 mph - N/A   Clear
1:35 AM 73.2 °F - 61.9 °F 68% 29.89 in 10.0 mi South 5.8 mph - N/A   Clear
1:55 AM 72.7 °F - 62.8 °F 71% 29.89 in 10.0 mi South 5.8 mph - N/A   Clear
2:35 AM 72.1 °F - 64.8 °F 78% 29.89 in 10.0 mi SSW 4.6 mph - N/A   Clear
2:55 AM 71.8 °F - 64.9 °F 79% 29.89 in 10.0 mi SSW 4.6 mph - N/A   Clear
3:15 AM 71.2 °F - 64.9 °F 80% 29.88 in 10.0 mi South 5.8 mph - N/A   Clear
3:35 AM 71.4 °F - 65.3 °F 81% 29.88 in 10.0 mi South 5.8 mph - N/A   Clear
3:55 AM 72.1 °F - 65.1 °F 78% 29.88 in 10.0 mi South 5.8 mph - N/A   Clear
4:35 AM 71.8 °F - 64.4 °F 77% 29.87 in 10.0 mi SSW 4.6 mph - N/A   Clear
4:55 AM 71.4 °F - 64.4 °F 78% 29.87 in 10.0 mi SSW 4.6 mph - N/A   Clear
5:15 AM 71.1 °F - 64.4 °F 79% 29.87 in 10.0 mi SSW 4.6 mph - N/A   Clear
5:35 AM 70.9 °F - 64.4 °F 80% 29.87 in 10.0 mi SSW 4.6 mph - N/A   Clear
5:55 AM 71.1 °F - 64.0 °F 78% 29.87 in 10.0 mi SW 5.8 mph - N/A   Clear
6:15 AM 71.2 °F - 63.5 °F 76% 29.87 in 10.0 mi SSW 5.8 mph - N/A   Clear
6:35 AM 71.6 °F - 63.0 °F 74% 29.88 in 10.0 mi SW 5.8 mph - N/A   Clear
6:55 AM 71.8 °F - 62.6 °F 73% 29.88 in 10.0 mi SSW 6.9 mph - N/A   Clear
7:15 AM 72.0 °F - 62.6 °F 72% 29.88 in 10.0 mi SW 5.8 mph - N/A   Clear
7:35 AM 72.1 °F - 62.4 °F 71% 29.88 in 10.0 mi SW 5.8 mph - N/A   Clear
7:55 AM 72.3 °F - 62.6 °F 71% 29.89 in 10.0 mi SW 5.8 mph - N/A   Clear
8:15 AM 73.6 °F - 62.4 °F 68% 29.89 in 10.0 mi SW 6.9 mph - N/A   Clear
8:35 AM 75.6 °F - 61.7 °F 62% 29.90 in 10.0 mi SSW 4.6 mph - N/A   Clear
8:55 AM 77.7 °F - 61.7 °F 58% 29.90 in 10.0 mi SW 5.8 mph - N/A   Clear
9:15 AM 79.9 °F - 62.2 °F 55% 29.90 in 10.0 mi SSW 8.1 mph - N/A   Clear
9:35 AM 81.5 °F 82.8 °F 63.1 °F 54% 29.90 in 10.0 mi SSW 6.9 mph - N/A   Clear
9:55 AM 83.1 °F 84.2 °F 63.3 °F 51% 29.91 in 10.0 mi SSW 5.8 mph - N/A   Clear
10:15 AM 84.2 °F 85.2 °F 63.1 °F 49% 29.91 in 10.0 mi SSW 4.6 mph - N/A   Clear
10:35 AM 85.3 °F 85.9 °F 62.1 °F 46% 29.92 in 10.0 mi South 5.8 mph - N/A   Clear
10:55 AM 86.4 °F 86.3 °F 60.8 °F 42% 29.91 in 10.0 mi SSE 4.6 mph - N/A   Clear
11:15 AM 86.9 °F 86.5 °F 60.1 °F 40% 29.91 in 10.0 mi SSE 6.9 mph - N/A   Clear
11:35 AM 87.6 °F 87.4 °F 60.6 °F 40% 29.91 in 10.0 mi South 5.8 mph - N/A   Clear
11:55 AM 88.2 °F 87.8 °F 60.3 °F 39% 29.91 in 10.0 mi SSE 3.5 mph - N/A   Clear
12:15 PM 88.9 °F 87.7 °F 57.6 °F 35% 29.91 in 10.0 mi ESE 8.1 mph - N/A   Clear
12:35 PM 89.8 °F 87.7 °F 54.3 °F 30% 29.90 in 10.0 mi ESE 4.6 mph - N/A   Clear
1:15 PM 90.7 °F 88.5 °F 54.0 °F 29% 29.88 in 10.0 mi SSE 6.9 mph - N/A   Clear
1:55 PM 91.6 °F - 51.8 °F 26% 29.87 in 7.0 mi SSE 6.9 mph - N/A   Clear
2:15 PM 91.9 °F - 52.2 °F 26% 29.86 in 10.0 mi East 5.8 mph - N/A   Clear
2:35 PM 91.9 °F - 51.6 °F 25% 29.85 in 10.0 mi SSE 5.8 mph - N/A   Clear
2:55 PM 91.9 °F - 52.0 °F 26% 29.84 in 10.0 mi ESE 9.2 mph 17.3 mph N/A   Clear
3:15 PM 92.3 °F - 51.6 °F 25% 29.83 in 10.0 mi ESE 5.8 mph - N/A   Clear
3:35 PM 92.3 °F - 51.4 °F 25% 29.82 in 10.0 mi SE 4.6 mph - N/A   Clear
3:55 PM 92.5 °F - 50.9 °F 24% 29.81 in 10.0 mi SE 10.4 mph - N/A   Clear
4:15 PM 92.7 °F - 50.2 °F 23% 29.81 in 10.0 mi ESE 8.1 mph - N/A   Clear
4:35 PM 93.0 °F - 49.3 °F 22% 29.80 in 10.0 mi East 4.6 mph - N/A   Clear
4:55 PM 93.9 °F - 45.3 °F 19% 29.80 in 10.0 mi East 8.1 mph - N/A   Clear
5:15 PM 93.0 °F - 44.4 °F 19% 29.80 in 10.0 mi ENE 5.8 mph - N/A   Clear
5:35 PM 92.8 °F - 44.4 °F 19% 29.80 in 10.0 mi East 8.1 mph - N/A   Clear
5:55 PM 93.2 °F - 43.9 °F 18% 29.80 in 10.0 mi East 8.1 mph - N/A   Clear
6:15 PM 92.3 °F - 45.7 °F 20% 29.80 in 10.0 mi East 8.1 mph - N/A   Clear
6:35 PM 91.0 °F - 49.8 °F 24% 29.80 in 10.0 mi East 8.1 mph - N/A   Clear
6:55 PM 89.8 °F - 51.6 °F 27% 29.80 in 10.0 mi East 5.8 mph - N/A   Clear
7:15 PM 87.6 °F 85.7 °F 54.5 °F 32% 29.81 in 10.0 mi East 4.6 mph - N/A   Clear
7:35 PM 85.3 °F 84.1 °F 56.5 °F 37% 29.81 in 10.0 mi ESE 6.9 mph - N/A   Clear
7:55 PM 83.8 °F 83.0 °F 56.3 °F 39% 29.82 in 10.0 mi ESE 8.1 mph - N/A   Clear
8:15 PM 83.3 °F 82.8 °F 57.0 °F 41% 29.82 in 10.0 mi East 6.9 mph - N/A   Clear
8:35 PM 82.2 °F 82.1 °F 58.3 °F 44% 29.83 in 10.0 mi East 6.9 mph - N/A   Clear
8:55 PM 80.6 °F 81.2 °F 59.9 °F 49% 29.83 in 10.0 mi ESE 8.1 mph - N/A   Clear
9:15 PM 80.6 °F 81.5 °F 61.2 °F 51% 29.84 in 10.0 mi ESE 9.2 mph - N/A   Clear
9:35 PM 80.4 °F 81.5 °F 62.1 °F 53% 29.84 in 10.0 mi ESE 8.1 mph - N/A   Clear
9:55 PM 79.5 °F - 62.6 °F 56% 29.85 in 10.0 mi ESE 5.8 mph - N/A   Clear
10:15 PM 78.3 °F - 63.1 °F 60% 29.86 in 10.0 mi ESE 5.8 mph - N/A   Clear
10:35 PM 77.2 °F - 63.7 °F 63% 29.86 in 10.0 mi ESE 5.8 mph - N/A   Clear
10:55 PM 76.3 °F - 64.2 °F 66% 29.86 in 10.0 mi SE 5.8 mph - N/A   Clear
11:15 PM 76.1 °F - 64.9 °F 68% 29.86 in 10.0 mi SE 5.8 mph - N/A   Clear
11:35 PM 75.9 °F - 66.0 °F 71% 29.86 in 10.0 mi SE 6.9 mph - N/A   Clear
11:55 PM 75.6 °F - 67.3 °F 75% 29.86 in 10.0 mi SE 5.8 mph - N/A   Clear